Location: Ajisawe
(8.4333°N, 4.3833°E)
Time: 23:45:36
(UTC+00:00)

S-56A Canister/Altair - Pass Details

Date: 28 April 2021
Orbit: 631 x 2501 km, 38.9° (Epoch: 15 May)

Event Time Altitude Azimuth Distance (km) Brightness Sun altitude
Rises 21:03:50 0° 289° (WNW) 5,675 12.7 -45.1°
Reaches altitude 10° 21:12:48 10° 324° (NW) 4,094 11.7 -46.9°
Maximum altitude 21:14:40 11° 334° (NNW) 3,910 11.5 -47.3°
Drops below altitude 10° 21:16:26 10° 344° (NNW) 3,811 11.4 -47.7°
Enters shadow 21:22:49 - 21° (NNE) 4,170 11.4 -49.0°
